International Virtual Aviation Organisation

Russian Federation and Kazakhstan MCD

 

Карточка аэропорта UUDL

Внимание!
Информация на этой странице в стадии наполнения.
Если вы не увидели какой-то информации, или заметили неточность - пожалуйста сообщите нам!
Спасибо!
Команда RU-STAFF
Название аэропортаТуношна
Название аэропорта (англ.)Tunoshna
Превышение305 ft. (93 m.)
Координаты57°33.636', 40°9.438'
Высота перехода700 m
Эшелон переходаFL050
Коды ответчика2750-2757
Зона ОрВДМосква РПИ (UUWV)
Данные METARUUDL 270330Z 16004MPS 9999 OVC006 M00/M02 Q1009 R23/590139 NOSIG RMK QFE748
Проноз погоды (TAF)UUDL 270347Z 2703/2803 14003G08MPS 6000 -SN OVC010 TX00/2712Z TNM01/2703Z TEMPO 2703/2712 1700 SN BR OVC003
NOTAMshow/hide NOTAM
AWOS   TABLE

Информация о ВПП

ВПП Длина ВПП (м.) Покрытие Курс ВПП Частота ILS
053010Асфальтобетон51 
233010Асфальтобетон231110.5

Диспетчерские позиции




Спутниковое изображение